| time (UTC) | temp C | wind direction | speed KPH | gust KPH | rain 1hr cm | rain 24hr cm | rain mn cm | humidity % | barometer mb |
| 20260510164531 | 12 | 0 | 0.0 | 14.5 | 0.00 | 0.28 | 0.00 | 36 | 1018.1 |
| 20260510164014 | 12 | 327 | 1.6 | 14.5 | 0.00 | 0.28 | 0.00 | 37 | 1018.1 |
| 20260510163515 | 11 | 269 | 6.4 | 14.5 | 0.00 | 0.28 | 0.00 | 35 | 1018.1 |
| 20260510163032 | 11 | 356 | 3.2 | 14.5 | 0.00 | 0.28 | 0.00 | 36 | 1018.0 |
| 20260510162515 | 11 | 0 | 1.6 | 17.7 | 0.00 | 0.28 | 0.00 | 37 | 1018.1 |
| 20260510162013 | 12 | 307 | 4.8 | 22.5 | 0.00 | 0.28 | 0.00 | 35 | 1018.1 |
| 20260510161532 | 11 | 261 | 4.8 | 22.5 | 0.00 | 0.28 | 0.00 | 35 | 1018.1 |
| 20260510161018 | 11 | 13 | 4.8 | 12.9 | 0.00 | 0.28 | 0.00 | 36 | 1017.9 |
| 20260510160514 | 11 | 330 | 4.8 | 17.7 | 0.00 | 0.28 | 0.00 | 36 | 1018.0 |
| 20260510160038 | 11 | 354 | 4.8 | 17.7 | 0.00 | 0.28 | 0.00 | 37 | 1017.9 |
| 20260510155518 | 11 | 294 | 4.8 | 19.3 | 0.00 | 0.28 | 0.00 | 36 | 1017.9 |
| 20260510155016 | 11 | 266 | 4.8 | 19.3 | 0.00 | 0.28 | 0.00 | 37 | 1017.9 |
| 20260510154547 | 11 | 319 | 4.8 | 17.7 | 0.00 | 0.28 | 0.00 | 35 | 1017.9 |
| 20260510154017 | 11 | 295 | 4.8 | 16.1 | 0.00 | 0.28 | 0.00 | 36 | 1017.8 |
| 20260510153515 | 11 | 234 | 1.6 | 16.1 | 0.00 | 0.28 | 0.00 | 37 | 1017.7 |
| 20260510153043 | 11 | 270 | 6.4 | 16.1 | 0.00 | 0.28 | 0.00 | 40 | 1017.6 |
| 20260510152515 | 11 | 0 | 0.0 | 11.3 | 0.00 | 0.28 | 0.00 | 39 | 1017.7 |
| 20260510152017 | 11 | 323 | 4.8 | 14.5 | 0.00 | 0.28 | 0.00 | 40 | 1017.6 |
| 20260510151532 | 11 | 293 | 0.0 | 14.5 | 0.00 | 0.28 | 0.00 | 41 | 1017.5 |
| 20260510151017 | 11 | 283 | 4.8 | 14.5 | 0.00 | 0.28 | 0.00 | 39 | 1017.6 |
| 20260510150525 | 11 | 0 | 1.6 | 14.5 | 0.00 | 0.28 | 0.00 | 40 | 1017.4 |
| 20260510150030 | 10 | 0 | 1.6 | 14.5 | 0.00 | 0.28 | 0.00 | 41 | 1017.3 |
| 20260510145515 | 10 | 33 | 1.6 | 14.5 | 0.00 | 0.28 | 0.00 | 39 | 1017.3 |
| 20260510145016 | 11 | 309 | 3.2 | 14.5 | 0.00 | 0.28 | 0.00 | 40 | 1017.3 |
| 20260510144545 | 10 | 0 | 0.0 | 16.1 | 0.00 | 0.28 | 0.00 | 41 | 1017.3 |
| 20260510144016 | 10 | 298 | 4.8 | 16.1 | 0.00 | 0.28 | 0.00 | 39 | 1017.2 |
| 20260510143518 | 11 | 340 | 3.2 | 12.9 | 0.00 | 0.28 | 0.00 | 39 | 1017.2 |
| 20260510143030 | 11 | 0 | 0.0 | 11.3 | 0.00 | 0.28 | 0.00 | 41 | 1017.1 |
| 20260510142525 | 10 | 0 | 0.0 | 11.3 | 0.00 | 0.28 | 0.00 | 43 | 1017.1 |
| 20260510142013 | 10 | 226 | 3.2 | 16.1 | 0.00 | 0.28 | 0.00 | 42 | 1017.0 |
| 20260510141533 | 9 | 0 | 3.2 | 16.1 | 0.00 | 0.28 | 0.00 | 42 | 1017.0 |
| 20260510141014 | 9 | 295 | 3.2 | 11.3 | 0.00 | 0.28 | 0.00 | 43 | 1017.0 |
| 20260510140515 | 9 | 0 | 4.8 | 11.3 | 0.00 | 0.28 | 0.00 | 43 | 1016.9 |
| 20260510140032 | 9 | 307 | 1.6 | 12.9 | 0.00 | 0.28 | 0.00 | 42 | 1016.8 |
| 20260510135516 | 9 | 0 | 1.6 | 12.9 | 0.00 | 0.28 | 0.00 | 43 | 1016.9 |
| 20260510135016 | 9 | 358 | 6.4 | 12.9 | 0.00 | 0.28 | 0.00 | 43 | 1016.8 |
| 20260510134532 | 9 | 313 | 3.2 | 11.3 | 0.00 | 0.28 | 0.00 | 44 | 1016.8 |
| 20260510134019 | 9 | 0 | 3.2 | 12.9 | 0.00 | 0.28 | 0.00 | 44 | 1016.8 |
| 20260510133515 | 8 | 0 | 0.0 | 12.9 | 0.00 | 0.28 | 0.00 | 45 | 1016.8 |
| 20260510133032 | 8 | 259 | 3.2 | 12.9 | 0.00 | 0.28 | 0.00 | 44 | 1016.7 |
| 20260510132513 | 8 | 346 | 0.0 | 9.7 | 0.00 | 0.28 | 0.00 | 47 | 1016.7 |
| 20260510132016 | 8 | 294 | 3.2 | 9.7 | 0.00 | 0.28 | 0.00 | 47 | 1016.7 |
| 20260510131533 | 8 | 336 | 0.0 | 9.7 | 0.00 | 0.28 | 0.00 | 50 | 1016.6 |
| 20260510131014 | 8 | 330 | 1.6 | 9.7 | 0.00 | 0.28 | 0.00 | 51 | 1016.5 |
| 20260510130514 | 8 | 0 | 1.6 | 11.3 | 0.00 | 0.28 | 0.00 | 52 | 1016.5 |
| 20260510130029 | 8 | 340 | 3.2 | 11.3 | 0.00 | 0.28 | 0.00 | 52 | 1016.4 |
| 20260510125513 | 7 | 322 | 6.4 | 11.3 | 0.00 | 0.28 | 0.00 | 52 | 1016.4 |
| 20260510125015 | 7 | 351 | 3.2 | 11.3 | 0.00 | 0.28 | 0.00 | 52 | 1016.4 |
| 20260510124534 | 7 | 314 | 3.2 | 9.7 | 0.00 | 0.28 | 0.00 | 53 | 1016.4 |
| 20260510124018 | 7 | 330 | 1.6 | 9.7 | 0.00 | 0.28 | 0.00 | 55 | 1016.2 |
| 20260510123520 | 7 | 281 | 1.6 | 9.7 | 0.00 | 0.28 | 0.00 | 55 | 1016.2 |
| 20260510123030 | 7 | 310 | 3.2 | 8.0 | 0.00 | 0.28 | 0.00 | 56 | 1016.1 |
| 20260510122514 | 7 | 347 | 1.6 | 8.0 | 0.00 | 0.28 | 0.00 | 57 | 1016.1 |
| 20260510122015 | 7 | 322 | 3.2 | 8.0 | 0.00 | 0.28 | 0.00 | 58 | 1016.1 |
| 20260510121531 | 7 | 319 | 3.2 | 8.0 | 0.00 | 0.28 | 0.00 | 59 | 1016.1 |
| 20260510121015 | 7 | 277 | 0.0 | 6.4 | 0.00 | 0.28 | 0.00 | 59 | 1016.0 |
| 20260510120514 | 6 | 0 | 0.0 | 8.0 | 0.00 | 0.28 | 0.00 | 60 | 1015.9 |
| 20260510120032 | 6 | 0 | 0.0 | 8.0 | 0.00 | 0.28 | 0.00 | 61 | 1015.8 |
| 20260510115515 | 6 | 0 | 1.6 | 8.0 | 0.00 | 0.28 | 0.00 | 61 | 1015.8 |
| 20260510115013 | 6 | 295 | 1.6 | 6.4 | 0.00 | 0.28 | 0.00 | 62 | 1015.7 |
| 20260510114530 | 6 | 288 | 0.0 | 4.8 | 0.00 | 0.28 | 0.00 | 63 | 1015.7 |
| 20260510114015 | 6 | 297 | 0.0 | 6.4 | 0.00 | 0.28 | 0.00 | 66 | 1015.6 |
| 20260510113515 | 5 | 0 | 0.0 | 8.0 | 0.00 | 0.28 | 0.00 | 65 | 1015.6 |
| 20260510113030 | 5 | 301 | 3.2 | 8.0 | 0.00 | 0.28 | 0.00 | 65 | 1015.5 |
| 20260510112518 | 5 | 294 | 0.0 | 4.8 | 0.00 | 0.28 | 0.00 | 66 | 1015.4 |
| 20260510112016 | 5 | 0 | 0.0 | 1.6 | 0.00 | 0.28 | 0.00 | 67 | 1015.4 |
| 20260510111530 | 5 | 0 | 0.0 | 1.6 | 0.00 | 0.28 | 0.00 | 67 | 1015.3 |
| 20260510111018 | 5 | 307 | 0.0 | 1.6 | 0.00 | 0.28 | 0.00 | 67 | 1015.2 |
| 20260510110515 | 5 | 0 | 0.0 | 0.0 | 0.00 | 0.28 | 0.00 | 68 | 1015.1 |
| 20260510110032 | 5 | 0 | 0.0 | 3.2 | 0.00 | 0.28 | 0.00 | 68 | 1014.9 |
| 20260510105515 | 4 | 0 | 0.0 | 3.2 | 0.00 | 0.28 | 0.00 | 69 | 1014.9 |
| 20260510105016 | 4 | 284 | 0.0 | 3.2 | 0.00 | 0.28 | 0.00 | 69 | 1014.9 |
| 20260510104536 | 4 | 0 | 0.0 | 1.6 | 0.00 | 0.28 | 0.00 | 70 | 1014.8 |
| 20260510104016 | 4 | 0 | 0.0 | 1.6 | 0.00 | 0.28 | 0.00 | 70 | 1014.7 |
| 20260510103515 | 4 | 0 | 0.0 | 3.2 | 0.00 | 0.28 | 0.00 | 70 | 1014.6 |
| 20260510103031 | 4 | 0 | 0.0 | 4.8 | 0.00 | 0.28 | 0.00 | 70 | 1014.6 |
| 20260510102515 | 4 | 0 | 0.0 | 4.8 | 0.00 | 0.28 | 0.00 | 70 | 1014.6 |
| 20260510102019 | 4 | 0 | 0.0 | 3.2 | 0.00 | 0.28 | 0.00 | 70 | 1014.6 |
| 20260510101532 | 4 | 0 | 0.0 | 3.2 | 0.00 | 0.28 | 0.00 | 70 | 1014.6 |
| 20260510101018 | 3 | 0 | 0.0 | 3.2 | 0.00 | 0.28 | 0.00 | 71 | 1014.5 |
| 20260510100516 | 3 | 0 | 0.0 | 3.2 | 0.00 | 0.28 | 0.00 | 71 | 1014.4 |
| 20260510100030 | 4 | 0 | 0.0 | 1.6 | 0.00 | 0.28 | 0.00 | 73 | 1014.4 |
| 20260510095518 | 4 | 0 | 0.0 | 1.6 | 0.00 | 0.28 | 0.00 | 73 | 1014.4 |
| 20260510095018 | 4 | 0 | 0.0 | 0.0 | 0.00 | 0.28 | 0.00 | 73 | 1014.3 |
| 20260510094532 | 4 | 0 | 0.0 | 0.0 | 0.00 | 0.28 | 0.00 | 74 | 1014.2 |
| 20260510094015 | 4 | 0 | 0.0 | 0.0 | 0.00 | 0.28 | 0.00 | 73 | 1014.0 |
| 20260510093519 | 4 | 0 | 0.0 | 0.0 | 0.00 | 0.28 | 0.00 | 73 | 1014.1 |
| 20260510093029 | 4 | 0 | 0.0 | 0.0 | 0.00 | 0.28 | 0.00 | 73 | 1014.0 |
| 20260510092515 | 4 | 0 | 0.0 | 0.0 | 0.00 | 0.28 | 0.00 | 73 | 1014.0 |
| 20260510092017 | 4 | 0 | 0.0 | 0.0 | 0.00 | 0.28 | 0.00 | 73 | 1013.8 |
| 20260510091532 | 5 | 0 | 0.0 | 0.0 | 0.00 | 0.28 | 0.00 | 72 | 1013.8 |
| 20260510091013 | 5 | 0 | 0.0 | 0.0 | 0.00 | 0.28 | 0.00 | 71 | 1013.7 |
| 20260510090515 | 5 | 0 | 0.0 | 0.0 | 0.00 | 0.28 | 0.00 | 71 | 1013.6 |
| 20260510090032 | 5 | 0 | 0.0 | 0.0 | 0.00 | 0.28 | 0.00 | 70 | 1013.5 |
| 20260510085515 | 5 | 0 | 0.0 | 0.0 | 0.00 | 0.28 | 0.00 | 70 | 1013.4 |
| 20260510085016 | 5 | 0 | 0.0 | 1.6 | 0.00 | 0.28 | 0.00 | 69 | 1013.3 |
| 20260510084545 | 5 | 0 | 0.0 | 3.2 | 0.00 | 0.28 | 0.00 | 69 | 1013.3 |
| 20260510084017 | 5 | 0 | 0.0 | 3.2 | 0.00 | 0.28 | 0.00 | 68 | 1013.3 |
| 20260510083516 | 5 | 0 | 0.0 | 3.2 | 0.00 | 0.28 | 0.00 | 68 | 1013.2 |
| 20260510083030 | 5 | 304 | 0.0 | 3.2 | 0.00 | 0.28 | 0.00 | 68 | 1013.1 |
| 20260510082515 | 5 | 0 | 0.0 | 0.0 | 0.00 | 0.28 | 0.00 | 68 | 1013.0 |
| 20260510082012 | 5 | 0 | 0.0 | 0.0 | 0.00 | 0.28 | 0.00 | 69 | 1012.9 |
| 20260510081535 | 5 | 0 | 0.0 | 0.0 | 0.00 | 0.28 | 0.00 | 68 | 1012.9 |
| 20260510081015 | 5 | 0 | 0.0 | 1.6 | 0.00 | 0.28 | 0.00 | 68 | 1012.8 |
| 20260510080515 | 6 | 0 | 0.0 | 1.6 | 0.00 | 0.28 | 0.00 | 68 | 1012.8 |
| 20260510080030 | 6 | 345 | 0.0 | 1.6 | 0.00 | 0.28 | 0.00 | 67 | 1012.7 |
| 20260510075516 | 6 | 0 | 0.0 | 1.6 | 0.00 | 0.28 | 0.00 | 67 | 1012.6 |
| 20260510075019 | 6 | 0 | 0.0 | 0.0 | 0.00 | 0.28 | 0.00 | 67 | 1012.4 |
| 20260510074538 | 6 | 0 | 0.0 | 0.0 | 0.00 | 0.28 | 0.00 | 67 | 1012.4 |
| 20260510074015 | 6 | 0 | 0.0 | 0.0 | 0.00 | 0.28 | 0.00 | 66 | 1012.3 |
| 20260510073515 | 6 | 0 | 0.0 | 1.6 | 0.00 | 0.28 | 0.00 | 66 | 1012.3 |
| 20260510073045 | 6 | 0 | 0.0 | 1.6 | 0.00 | 0.28 | 0.00 | 65 | 1012.1 |
| 20260510072514 | 6 | 0 | 0.0 | 0.0 | 0.00 | 0.28 | 0.00 | 65 | 1012.0 |
| 20260510072016 | 6 | 0 | 0.0 | 0.0 | 0.00 | 0.28 | 0.00 | 65 | 1012.0 |
| 20260510071532 | 6 | 0 | 0.0 | 0.0 | 0.00 | 0.28 | 0.00 | 64 | 1011.9 |
| 20260510071012 | 6 | 0 | 0.0 | 1.6 | 0.00 | 0.28 | 0.00 | 64 | 1012.0 |
| 20260510070513 | 6 | 0 | 0.0 | 3.2 | 0.00 | 0.28 | 0.00 | 64 | 1011.9 |
| 20260510070035 | 7 | 0 | 0.0 | 3.2 | 0.00 | 0.28 | 0.00 | 64 | 1011.6 |
| 20260510065518 | 7 | 0 | 0.0 | 4.8 | 0.00 | 0.28 | 0.00 | 64 | 1011.6 |
| 20260510065018 | 7 | 0 | 0.0 | 4.8 | 0.00 | 0.28 | 0.00 | 64 | 1011.5 |
| 20260510064530 | 7 | 323 | 0.0 | 3.2 | 0.00 | 0.28 | 0.00 | 64 | 1011.4 |
| 20260510064012 | 7 | 0 | 0.0 | 4.8 | 0.00 | 0.28 | 0.00 | 64 | 1011.4 |
| 20260510063517 | 7 | 0 | 0.0 | 4.8 | 0.00 | 0.28 | 0.00 | 63 | 1011.3 |
| 20260510063030 | 7 | 0 | 0.0 | 4.8 | 0.00 | 0.28 | 0.00 | 63 | 1011.3 |
| 20260510062514 | 7 | 0 | 0.0 | 4.8 | 0.00 | 0.28 | 0.00 | 62 | 1011.3 |
| 20260510062013 | 7 | 316 | 0.0 | 8.0 | 0.00 | 0.28 | 0.00 | 61 | 1011.2 |
| 20260510061531 | 8 | 0 | 1.6 | 8.0 | 0.00 | 0.28 | 0.00 | 61 | 1011.1 |
| 20260510061017 | 8 | 20 | 0.0 | 12.9 | 0.00 | 0.28 | 0.00 | 61 | 1011.1 |
| 20260510060516 | 8 | 303 | 4.8 | 14.5 | 0.00 | 0.28 | 0.00 | 60 | 1011.0 |
| 20260510060038 | 8 | 335 | 3.2 | 14.5 | 0.00 | 0.28 | 0.00 | 60 | 1010.9 |
| 20260510055514 | 8 | 336 | 6.4 | 17.7 | 0.00 | 0.28 | 0.00 | 60 | 1010.9 |
| 20260510055015 | 8 | 6 | 8.0 | 20.9 | 0.00 | 0.28 | 0.00 | 60 | 1010.8 |
| 20260510054531 | 8 | 41 | 9.7 | 20.9 | 0.00 | 0.28 | 0.00 | 60 | 1010.8 |
| 20260510054013 | 8 | 355 | 9.7 | 20.9 | 0.00 | 0.28 | 0.00 | 60 | 1010.7 |
| 20260510053515 | 8 | 327 | 4.8 | 11.3 | 0.00 | 0.28 | 0.00 | 61 | 1010.6 |
| 20260510053032 | 8 | 0 | 0.0 | 4.8 | 0.00 | 0.28 | 0.00 | 62 | 1010.5 |
| 20260510052514 | 8 | 18 | 0.0 | 0.0 | 0.00 | 0.28 | 0.00 | 62 | 1010.5 |
| 20260510052017 | 8 | 0 | 0.0 | 0.0 | 0.00 | 0.28 | 0.00 | 61 | 1010.4 |
| 20260510051530 | 9 | 0 | 0.0 | 0.0 | 0.00 | 0.28 | 0.00 | 60 | 1010.3 |
| 20260510051015 | 9 | 0 | 0.0 | 0.0 | 0.00 | 0.28 | 0.00 | 59 | 1010.3 |
| 20260510050514 | 9 | 0 | 0.0 | 0.0 | 0.00 | 0.28 | 0.00 | 59 | 1010.2 |
| 20260510050031 | 10 | 0 | 0.0 | 0.0 | 0.00 | 0.28 | 0.00 | 58 | 1010.0 |
| 20260510045515 | 10 | 0 | 0.0 | 4.8 | 0.00 | 0.28 | 0.00 | 57 | 1010.1 |
| 20260510045016 | 10 | 0 | 0.0 | 4.8 | 0.00 | 0.28 | 0.00 | 56 | 1010.0 |
| 20260510044530 | 10 | 0 | 1.6 | 9.7 | 0.00 | 0.28 | 0.00 | 55 | 1009.9 |
| 20260510044015 | 10 | 0 | 0.0 | 9.7 | 0.00 | 0.28 | 0.00 | 55 | 1009.8 |
| 20260510043516 | 10 | 342 | 3.2 | 12.9 | 0.00 | 0.28 | 0.00 | 54 | 1009.6 |
| 20260510043031 | 10 | 328 | 3.2 | 12.9 | 0.00 | 0.28 | 0.00 | 55 | 1009.5 |
| 20260510042517 | 10 | 338 | 3.2 | 12.9 | 0.00 | 0.28 | 0.00 | 55 | 1009.4 |
| 20260510042016 | 10 | 356 | 6.4 | 12.9 | 0.00 | 0.28 | 0.00 | 56 | 1009.4 |
| 20260510041534 | 10 | 340 | 4.8 | 11.3 | 0.00 | 0.28 | 0.00 | 56 | 1009.3 |
| 20260510041018 | 10 | 30 | 1.6 | 11.3 | 0.00 | 0.28 | 0.00 | 58 | 1009.3 |
| 20260510040515 | 10 | 3 | 1.6 | 8.0 | 0.00 | 0.28 | 0.00 | 59 | 1009.2 |
| 20260510040030 | 10 | 351 | 1.6 | 6.4 | 0.00 | 0.28 | 0.00 | 58 | 1009.2 |
| 20260510035512 | 11 | 319 | 1.6 | 6.4 | 0.00 | 0.28 | 0.28 | 58 | 1009.2 |
| 20260510035014 | 11 | 342 | 1.6 | 8.0 | 0.00 | 0.28 | 0.28 | 59 | 1009.1 |
| 20260510034532 | 11 | 0 | 0.0 | 8.0 | 0.00 | 0.28 | 0.28 | 59 | 1009.1 |
| 20260510034015 | 11 | 327 | 3.2 | 11.3 | 0.00 | 0.28 | 0.28 | 58 | 1009.0 |
| 20260510033519 | 11 | 316 | 3.2 | 11.3 | 0.00 | 0.28 | 0.28 | 58 | 1008.9 |
| 20260510033030 | 11 | 15 | 4.8 | 12.9 | 0.00 | 0.28 | 0.28 | 57 | 1008.9 |
| 20260510032515 | 11 | 354 | 4.8 | 12.9 | 0.00 | 0.28 | 0.28 | 56 | 1008.9 |
| 20260510032013 | 12 | 28 | 4.8 | 12.9 | 0.00 | 0.28 | 0.28 | 56 | 1008.8 |
| 20260510031535 | 12 | 318 | 3.2 | 16.1 | 0.00 | 0.28 | 0.28 | 55 | 1008.8 |
| 20260510031017 | 12 | 24 | 8.0 | 16.1 | 0.00 | 0.28 | 0.28 | 53 | 1008.8 |
| 20260510030515 | 12 | 16 | 6.4 | 14.5 | 0.00 | 0.28 | 0.28 | 53 | 1008.7 |
| 20260510030035 | 13 | 3 | 4.8 | 14.5 | 0.00 | 0.28 | 0.28 | 51 | 1008.3 |
| 20260510025515 | 13 | 0 | 1.6 | 9.7 | 0.00 | 0.28 | 0.28 | 50 | 1008.2 |
| 20260510025015 | 13 | 9 | 3.2 | 14.5 | 0.00 | 0.28 | 0.28 | 50 | 1008.1 |
| 20260510024534 | 13 | 342 | 3.2 | 14.5 | 0.00 | 0.28 | 0.28 | 49 | 1008.0 |
| 20260510024014 | 13 | 340 | 4.8 | 12.9 | 0.00 | 0.28 | 0.28 | 49 | 1008.0 |
| 20260510023514 | 13 | 317 | 4.8 | 17.7 | 0.00 | 0.28 | 0.28 | 48 | 1008.0 |
| 20260510023030 | 13 | 349 | 4.8 | 17.7 | 0.00 | 0.28 | 0.28 | 48 | 1007.9 |
| 20260510022516 | 13 | 302 | 8.0 | 19.3 | 0.00 | 0.28 | 0.28 | 47 | 1007.8 |
| 20260510022017 | 14 | 304 | 6.4 | 19.3 | 0.00 | 0.28 | 0.28 | 47 | 1007.6 |
| 20260510021534 | 14 | 296 | 4.8 | 16.1 | 0.00 | 0.28 | 0.28 | 47 | 1007.6 |
| 20260510021013 | 14 | 337 | 4.8 | 11.3 | 0.00 | 0.28 | 0.28 | 46 | 1007.5 |
| 20260510020515 | 14 | 321 | 1.6 | 9.7 | 0.00 | 0.28 | 0.28 | 46 | 1007.3 |
| 20260510020030 | 14 | 301 | 3.2 | 11.3 | 0.00 | 0.28 | 0.28 | 46 | 1007.2 |
| 20260510015517 | 14 | 326 | 3.2 | 17.7 | 0.00 | 0.28 | 0.28 | 45 | 1007.0 |
| 20260510015016 | 14 | 309 | 6.4 | 29.0 | 0.00 | 0.28 | 0.28 | 45 | 1006.9 |
| 20260510014529 | 14 | 328 | 11.3 | 29.0 | 0.00 | 0.28 | 0.28 | 44 | 1006.8 |
| 20260510014015 | 15 | 324 | 12.9 | 24.1 | 0.00 | 0.28 | 0.28 | 44 | 1006.7 |
| 20260510013514 | 15 | 308 | 12.9 | 24.1 | 0.00 | 0.28 | 0.28 | 44 | 1006.5 |
| 20260510013032 | 15 | 330 | 6.4 | 20.9 | 0.00 | 0.28 | 0.28 | 45 | 1006.3 |
| 20260510012514 | 15 | 310 | 8.0 | 20.9 | 0.00 | 0.28 | 0.28 | 45 | 1006.0 |
| 20260510012015 | 15 | 315 | 8.0 | 19.3 | 0.00 | 0.28 | 0.28 | 45 | 1005.8 |
| 20260510011531 | 15 | 309 | 1.6 | 12.9 | 0.00 | 0.28 | 0.28 | 49 | 1005.6 |
| 20260510011014 | 15 | 316 | 1.6 | 11.3 | 0.00 | 0.28 | 0.28 | 50 | 1005.4 |
| 20260510010515 | 15 | 0 | 1.6 | 11.3 | 0.00 | 0.28 | 0.28 | 49 | 1005.1 |
| 20260510010032 | 15 | 0 | 0.0 | 0.0 | 0.00 | 0.28 | 0.28 | 54 | 1005.1 |
| 20260510005514 | 15 | 0 | 0.0 | 0.0 | 0.00 | 0.28 | 0.28 | 52 | 1005.1 |
| 20260510005018 | 15 | 0 | 0.0 | 0.0 | 0.00 | 0.28 | 0.28 | 53 | 1005.0 |
| 20260510004529 | 15 | 0 | 0.0 | 6.4 | 0.00 | 0.28 | 0.28 | 51 | 1004.9 |
| 20260510004014 | 16 | 0 | 0.0 | 6.4 | 0.00 | 0.28 | 0.28 | 50 | 1004.9 |
| 20260510003514 | 16 | 0 | 0.0 | 8.0 | 0.00 | 0.28 | 0.28 | 49 | 1004.8 |
| 20260510003031 | 16 | 287 | 0.0 | 11.3 | 0.00 | 0.28 | 0.28 | 48 | 1004.6 |
| 20260510002514 | 16 | 243 | 1.6 | 11.3 | 0.00 | 0.28 | 0.28 | 47 | 1004.8 |
| 20260510002019 | 16 | 283 | 0.0 | 8.0 | 0.00 | 0.28 | 0.28 | 47 | 1004.4 |
| 20260510001531 | 16 | 0 | 0.0 | 14.5 | 0.00 | 0.28 | 0.28 | 47 | 1004.4 |
| 20260510001015 | 16 | 0 | 1.6 | 14.5 | 0.00 | 0.28 | 0.28 | 46 | 1004.3 |
| 20260510000519 | 16 | 0 | 1.6 | 14.5 | 0.00 | 0.28 | 0.28 | 46 | 1004.3 |
| 20260510000035 | 16 | 281 | 1.6 | 14.5 | 0.00 | 0.28 | 0.28 | 46 | 1004.2 |
| 20260509235515 | 16 | 268 | 4.8 | 17.7 | 0.00 | 0.28 | 0.28 | 45 | 1004.3 |
| 20260509235016 | 17 | 249 | 3.2 | 17.7 | 0.00 | 0.28 | 0.28 | 45 | 1004.1 |
| 20260509234538 | 17 | 226 | 3.2 | 17.7 | 0.00 | 0.28 | 0.28 | 45 | 1004.0 |
| 20260509234015 | 17 | 256 | 1.6 | 17.7 | 0.00 | 0.28 | 0.28 | 44 | 1004.0 |
| 20260509233515 | 17 | 287 | 3.2 | 22.5 | 0.00 | 0.28 | 0.28 | 43 | 1003.9 |
| 20260509233030 | 17 | 286 | 6.4 | 22.5 | 0.00 | 0.28 | 0.28 | 43 | 1003.9 |
| 20260509232513 | 17 | 280 | 9.7 | 25.7 | 0.00 | 0.28 | 0.28 | 42 | 1003.8 |
| 20260509232015 | 17 | 212 | 6.4 | 29.0 | 0.00 | 0.28 | 0.28 | 42 | 1003.8 |
| 20260509231530 | 17 | 245 | 6.4 | 29.0 | 0.00 | 0.28 | 0.28 | 42 | 1003.7 |
| 20260509231016 | 17 | 243 | 12.9 | 35.4 | 0.00 | 0.28 | 0.28 | 40 | 1003.7 |
| 20260509230516 | 18 | 267 | 12.9 | 35.4 | 0.00 | 0.28 | 0.28 | 39 | 1003.7 |
| 20260509230032 | 18 | 250 | 11.3 | 33.8 | 0.00 | 0.28 | 0.28 | 39 | 1003.6 |
| 20260509225516 | 18 | 246 | 8.0 | 37.0 | 0.00 | 0.28 | 0.28 | 39 | 1003.5 |
| 20260509225015 | 18 | 201 | 16.1 | 48.3 | 0.00 | 0.28 | 0.28 | 37 | 1003.4 |
| 20260509224530 | 18 | 231 | 14.5 | 48.3 | 0.00 | 0.28 | 0.28 | 37 | 1003.3 |
| 20260509224015 | 18 | 269 | 22.5 | 46.7 | 0.00 | 0.28 | 0.28 | 36 | 1003.1 |
| 20260509223519 | 18 | 245 | 14.5 | 32.2 | 0.00 | 0.28 | 0.28 | 37 | 1003.1 |
| 20260509223030 | 18 | 211 | 9.7 | 27.4 | 0.00 | 0.28 | 0.28 | 38 | 1003.0 |
| 20260509222514 | 18 | 290 | 6.4 | 27.4 | 0.00 | 0.28 | 0.28 | 38 | 1003.0 |
| 20260509222013 | 18 | 252 | 14.5 | 27.4 | 0.00 | 0.28 | 0.28 | 37 | 1002.8 |
| 20260509221529 | 18 | 236 | 11.3 | 33.8 | 0.00 | 0.28 | 0.28 | 38 | 1002.6 |
| 20260509221016 | 18 | 298 | 12.9 | 33.8 | 0.00 | 0.28 | 0.28 | 38 | 1002.6 |
| 20260509220516 | 18 | 273 | 17.7 | 33.8 | 0.00 | 0.28 | 0.28 | 37 | 1002.5 |
| 20260509220031 | 18 | 176 | 17.7 | 33.8 | 0.00 | 0.28 | 0.28 | 38 | 1002.4 |
| 20260509215518 | 18 | 213 | 11.3 | 29.0 | 0.00 | 0.28 | 0.28 | 40 | 1002.4 |
| 20260509215013 | 18 | 224 | 14.5 | 33.8 | 0.00 | 0.28 | 0.28 | 40 | 1002.4 |
| 20260509214533 | 18 | 194 | 14.5 | 33.8 | 0.00 | 0.28 | 0.28 | 40 | 1002.3 |
| 20260509214019 | 18 | 221 | 16.1 | 33.8 | 0.00 | 0.28 | 0.28 | 39 | 1002.2 |
| 20260509213514 | 18 | 290 | 14.5 | 38.6 | 0.00 | 0.28 | 0.28 | 39 | 1002.3 |
| 20260509213031 | 18 | 266 | 17.7 | 38.6 | 0.00 | 0.28 | 0.28 | 39 | 1002.3 |
| 20260509212516 | 18 | 279 | 14.5 | 41.8 | 0.00 | 0.28 | 0.28 | 39 | 1002.4 |
| 20260509212015 | 18 | 229 | 24.1 | 41.8 | 0.00 | 0.28 | 0.28 | 39 | 1002.1 |
| 20260509211530 | 18 | 223 | 14.5 | 32.2 | 0.00 | 0.28 | 0.28 | 39 | 1002.2 |
| 20260509211014 | 18 | 240 | 16.1 | 33.8 | 0.00 | 0.28 | 0.28 | 39 | 1002.2 |
| 20260509210516 | 18 | 229 | 16.1 | 33.8 | 0.00 | 0.28 | 0.28 | 40 | 1002.1 |
| 20260509210031 | 18 | 231 | 8.0 | 29.0 | 0.00 | 0.28 | 0.28 | 42 | 1002.0 |
| 20260509205514 | 18 | 226 | 14.5 | 37.0 | 0.00 | 0.28 | 0.28 | 41 | 1002.0 |
| 20260509205017 | 18 | 213 | 17.7 | 37.0 | 0.00 | 0.28 | 0.28 | 43 | 1002.1 |
| 20260509204532 | 18 | 217 | 12.9 | 32.2 | 0.00 | 0.28 | 0.28 | 42 | 1001.8 |
| 20260509204015 | 17 | 225 | 12.9 | 30.6 | 0.00 | 0.28 | 0.28 | 43 | 1002.1 |
| 20260509203515 | 17 | 231 | 14.5 | 33.8 | 0.00 | 0.28 | 0.28 | 45 | 1002.1 |
| 20260509203032 | 17 | 278 | 16.1 | 37.0 | 0.00 | 0.28 | 0.28 | 44 | 1002.2 |
| 20260509202513 | 17 | 245 | 16.1 | 37.0 | 0.00 | 0.28 | 0.28 | 44 | 1002.3 |
| 20260509202018 | 17 | 210 | 20.9 | 37.0 | 0.00 | 0.28 | 0.28 | 44 | 1002.5 |
| 20260509201532 | 17 | 236 | 14.5 | 32.2 | 0.00 | 0.28 | 0.28 | 46 | 1002.6 |
| 20260509201014 | 17 | 266 | 11.3 | 32.2 | 0.00 | 0.28 | 0.28 | 44 | 1002.5 |
| 20260509200516 | 17 | 249 | 14.5 | 32.2 | 0.00 | 0.28 | 0.28 | 45 | 1002.7 |
| 20260509200040 | 17 | 288 | 14.5 | 30.6 | 0.00 | 0.28 | 0.28 | 45 | 1002.9 |
| 20260509195520 | 17 | 248 | 11.3 | 32.2 | 0.00 | 0.28 | 0.28 | 46 | 1002.9 |
| 20260509195014 | 18 | 273 | 11.3 | 32.2 | 0.00 | 0.28 | 0.28 | 47 | 1003.2 |
| 20260509194531 | 17 | 278 | 8.0 | 32.2 | 0.00 | 0.28 | 0.28 | 49 | 1002.9 |
| 20260509194014 | 17 | 248 | 8.0 | 27.4 | 0.00 | 0.28 | 0.28 | 50 | 1002.8 |
| 20260509193521 | 17 | 279 | 6.4 | 22.5 | 0.00 | 0.28 | 0.28 | 53 | 1002.8 |
| 20260509193032 | 17 | 293 | 8.0 | 19.3 | 0.03 | 0.28 | 0.28 | 56 | 1002.8 |
| 20260509192513 | 17 | 233 | 4.8 | 19.3 | 0.15 | 0.28 | 0.28 | 65 | 1002.8 |
| 20260509192017 | 16 | 261 | 4.8 | 14.5 | 0.25 | 0.28 | 0.28 | 68 | 1002.8 |
| 20260509191532 | 16 | 0 | 0.0 | 9.7 | 0.28 | 0.28 | 0.28 | 75 | 1002.8 |
| 20260509191017 | 15 | 200 | 0.0 | 11.3 | 0.28 | 0.28 | 0.28 | 77 | 1002.6 |
| 20260509190514 | 15 | 0 | 1.6 | 12.9 | 0.28 | 0.28 | 0.28 | 77 | 1002.7 |
| 20260509190030 | 14 | 208 | 6.4 | 14.5 | 0.28 | 0.28 | 0.28 | 77 | 1002.9 |
| 20260509185513 | 14 | 193 | 4.8 | 19.3 | 0.28 | 0.28 | 0.28 | 82 | 1002.8 |
| 20260509185015 | 13 | 268 | 6.4 | 19.3 | 0.28 | 0.28 | 0.28 | 82 | 1002.9 |
| 20260509184538 | 13 | 230 | 3.2 | 12.9 | 0.28 | 0.28 | 0.28 | 84 | 1002.8 |
| 20260509184014 | 12 | 228 | 3.2 | 22.5 | 0.28 | 0.28 | 0.28 | 83 | 1002.7 |
| 20260509183516 | 12 | 285 | 3.2 | 22.5 | 0.28 | 0.28 | 0.28 | 81 | 1002.5 |
| 20260509183031 | 12 | 209 | 8.0 | 43.5 | 0.20 | 0.20 | 0.20 | 77 | 1003.1 |
| 20260509182515 | 14 | 223 | 9.7 | 43.5 | 0.13 | 0.13 | 0.13 | 69 | 1003.0 |
| 20260509182014 | 16 | 188 | 16.1 | 35.4 | 0.00 | 0.00 | 0.00 | 58 | 1003.0 |
| 20260509181531 | 18 | 271 | 9.7 | 29.0 | 0.00 | 0.00 | 0.00 | 49 | 1002.2 |
| 20260509181015 | 18 | 215 | 14.5 | 33.8 | 0.00 | 0.00 | 0.00 | 49 | 1001.4 |
| 20260509180514 | 18 | 229 | 14.5 | 33.8 | 0.00 | 0.00 | 0.00 | 50 | 1001.2 |
| 20260509180032 | 18 | 238 | 19.3 | 33.8 | 0.00 | 0.00 | 0.00 | 48 | 1001.2 |
| 20260509175516 | 18 | 224 | 16.1 | 33.8 | 0.00 | 0.00 | 0.00 | 49 | 1001.3 |
| 20260509175015 | 18 | 208 | 16.1 | 32.2 | 0.00 | 0.00 | 0.00 | 48 | 1001.3 |
| 20260509174535 | 18 | 235 | 19.3 | 35.4 | 0.00 | 0.00 | 0.00 | 48 | 1001.4 |
| 20260509174014 | 18 | 227 | 16.1 | 38.6 | 0.00 | 0.00 | 0.00 | 49 | 1001.4 |
| 20260509173514 | 18 | 245 | 16.1 | 48.3 | 0.00 | 0.00 | 0.00 | 48 | 1001.6 |
| 20260509173031 | 18 | 232 | 19.3 | 48.3 | 0.00 | 0.00 | 0.00 | 47 | 1001.6 |
| 20260509172513 | 18 | 246 | 11.3 | 27.4 | 0.00 | 0.00 | 0.00 | 51 | 1001.7 |
| 20260509172016 | 18 | 210 | 8.0 | 27.4 | 0.00 | 0.00 | 0.00 | 51 | 1001.8 |
| 20260509171533 | 18 | 181 | 11.3 | 33.8 | 0.00 | 0.00 | 0.00 | 51 | 1001.6 |
| 20260509171014 | 18 | 226 | 14.5 | 33.8 | 0.00 | 0.00 | 0.00 | 51 | 1001.6 |
| 20260509170516 | 18 | 223 | 16.1 | 33.8 | 0.00 | 0.00 | 0.00 | 51 | 1001.6 |
| 20260509170033 | 18 | 229 | 11.3 | 32.2 | 0.00 | 0.00 | 0.00 | 51 | 1001.7 |
| 20260509165513 | 18 | 181 | 14.5 | 32.2 | 0.00 | 0.00 | 0.00 | 51 | 1001.7 |
| 20260509165013 | 18 | 200 | 11.3 | 30.6 | 0.00 | 0.00 | 0.00 | 51 | 1001.8 |